Weather History for St. Johnsbury, VT

Change the Weather History Date:

Sunday, October 28, 2012

  Actual Average Record
Temperature  
Mean Temperature 55 °F 43 °F  
Max Temperature 63 °F 53 °F 76 °F (1971)
Min Temperature 46 °F 33 °F 13 °F (1936)
Degree Days  
Heating Degree Days 10 22  
Month to date heating degree days 420 485  
Since 1 July heating degree days 702 719  
Cooling Degree Days 0 0  
Month to date cooling degree days 0 0  
Year to date cooling degree days 377 432  
Growing Degree Days 4 (Base 50)    
Moisture  
Dew Point 45 °F    
Average Humidity 74    
Maximum Humidity 100    
Minimum Humidity 48    
Precipitation  
Precipitation 0.00 in 0.12 in 1.71 in (2006)
Month to date precipitation 1.87 3.51  
Year to date precipitation 28.84 32.66  
Sea Level Pressure  
Sea Level Pressure 29.96 in    
Wind  
Wind Speed - (North)    
Max Wind Speed -    
Max Gust Speed -    
T = Trace of Precipitation, MM = Missing Value Source: NWS Daily Summary

Daily Weather History Graph

Daily Weather History Graph

Search for Another Location

Airport:

Trip Planner

Search our weather history database for the weather conditions in past years. The results will help you decide how hot, cold, wet, or windy it might be!

Date:

Astronomy

Oct. 28, 2012 Rise Set
Actual Time 7:20 AM EDT 5:42 PM EDT
Civil Twilight 6:50 AM EDT 6:12 PM EDT
Nautical Twilight 6:16 AM EDT 6:46 PM EDT
Astronomical Twilight 5:42 AM EDT 7:20 PM EDT
Moon 4:58 PM EDT (10/28) 6:09 AM EDT (10/28)
Length of Visible Light 11h 21m
Length of Day
10h 21m
Waxing Gibbous, 99% of the Moon is Illuminated
Oct 28
Waxing Gibbous
Oct 29
Full
Nov 6
Last Quarter
Nov 13
New
Nov 20
First Quarter

Hourly Weather History & Observations

Time (EDT) Temp. Dew Point Humidity Pressure Visibility Wind Dir Wind Speed Gust Speed Precip Events Conditions
12:54 AM 51.1 °F 48.9 °F 92% 30.01 in - North - - N/A   Unknown
1:54 AM 50.0 °F 48.9 °F 96% 30.01 in - North - - N/A   Unknown
2:54 AM 48.0 °F 46.9 °F 96% 30.01 in - North - - N/A   Unknown
3:54 AM 48.0 °F 48.0 °F 100% 30.00 in - North - - N/A   Unknown
4:54 AM 48.0 °F 46.9 °F 96% 30.01 in - North - - N/A   Unknown
5:54 AM 46.9 °F 46.9 °F 100% 30.01 in - North - - N/A   Unknown
6:54 AM 46.9 °F 46.0 °F 97% 30.01 in - North - - 0.01 in   Unknown
7:54 AM 46.0 °F 46.0 °F 100% 30.02 in - North - - N/A   Unknown
8:54 AM 46.9 °F 46.9 °F 100% 30.04 in - North - - N/A   Unknown
9:54 AM 48.0 °F 46.9 °F 96% 30.03 in - North - - N/A   Unknown
10:54 AM 53.1 °F 46.9 °F 80% 30.01 in - North - - N/A   Unknown
11:54 AM 57.9 °F 44.1 °F 60% 29.99 in - North - - N/A   Unknown
12:54 PM 60.1 °F 42.1 °F 51% 29.97 in - North - - N/A   Unknown
1:54 PM 61.0 °F 41.0 °F 48% 29.96 in - North - - N/A   Unknown
2:54 PM 63.0 °F 43.0 °F 48% 29.93 in - North - - N/A   Unknown
3:54 PM 62.1 °F 43.0 °F 50% 29.91 in - North - - N/A   Unknown
4:54 PM 60.1 °F 44.1 °F 55% 29.91 in - North - - N/A   Unknown
5:54 PM 57.9 °F 44.1 °F 60% 29.90 in - North - - N/A   Unknown
6:54 PM 57.0 °F 44.1 °F 62% 29.91 in - North - - N/A   Unknown
7:54 PM 55.0 °F 44.1 °F 67% 29.91 in - North - - N/A   Unknown
8:54 PM 54.0 °F 44.1 °F 69% 29.91 in - North - - N/A   Unknown
9:54 PM 53.1 °F 43.0 °F 69% 29.92 in - North - - N/A   Unknown
10:54 PM 52.0 °F 43.0 °F 71% 29.90 in - North - - N/A   Unknown
11:54 PM 51.1 °F 43.0 °F 74% 29.88 in - North - - N/A   Unknown